TimeEST,TemperatureF,Dew PointF,Humidity,Sea Level PressureIn,VisibilityMPH,Wind Direction,Wind SpeedMPH,Gust SpeedMPH,PrecipitationIn,Events,Conditions,WindDirDegrees,DateUTC
12:15 AM,32.0,14.0,48,30.41,10.0,NNW,5.8,-,N/A,,Clear,340,2013-11-04 05:15:00
12:35 AM,32.0,14.0,48,30.42,10.0,NNW,3.5,-,N/A,,Clear,330,2013-11-04 05:35:00
12:55 AM,32.0,14.0,48,30.43,10.0,NW,3.5,-,N/A,,Clear,320,2013-11-04 05:55:00
1:15 AM,30.2,14.0,51,30.44,10.0,NW,4.6,-,N/A,,Clear,310,2013-11-04 06:15:00
1:35 AM,30.2,15.8,55,30.45,10.0,NW,4.6,-,N/A,,Clear,320,2013-11-04 06:35:00
1:55 AM,30.2,15.8,55,30.46,10.0,NNW,5.8,-,N/A,,Clear,340,2013-11-04 06:55:00
2:15 AM,32.0,15.8,51,30.46,10.0,NNW,5.8,-,N/A,,Clear,340,2013-11-04 07:15:00
2:35 AM,30.2,15.8,55,30.47,10.0,NNW,5.8,-,N/A,,Clear,330,2013-11-04 07:35:00
2:55 AM,30.2,15.8,55,30.48,10.0,NNW,8.1,-,N/A,,Clear,340,2013-11-04 07:55:00
3:15 AM,30.2,15.8,55,30.48,10.0,NNW,5.8,-,N/A,,Clear,340,2013-11-04 08:15:00
3:35 AM,30.2,15.8,55,30.50,10.0,NW,6.9,-,N/A,,Clear,320,2013-11-04 08:35:00
3:55 AM,30.2,15.8,55,30.51,10.0,NW,4.6,-,N/A,,Clear,310,2013-11-04 08:55:00
4:15 AM,28.4,15.8,59,30.52,10.0,NNW,5.8,-,N/A,,Clear,330,2013-11-04 09:15:00
4:35 AM,28.4,15.8,59,30.53,10.0,NNW,4.6,-,N/A,,Clear,330,2013-11-04 09:35:00
4:55 AM,26.6,15.8,64,30.55,10.0,WNW,5.8,-,N/A,,Clear,290,2013-11-04 09:55:00
5:15 AM,26.6,15.8,64,30.56,10.0,WNW,4.6,-,N/A,,Clear,300,2013-11-04 10:15:00
5:35 AM,26.6,15.8,64,30.56,10.0,Calm,Calm,-,N/A,,Clear,0,2013-11-04 10:35:00
5:55 AM,26.6,15.8,64,30.57,10.0,NW,4.6,-,N/A,,Clear,310,2013-11-04 10:55:00
6:15 AM,26.6,15.8,64,30.58,10.0,WNW,4.6,-,N/A,,Clear,300,2013-11-04 11:15:00
6:35 AM,26.6,15.8,64,30.59,10.0,WNW,4.6,-,N/A,,Clear,300,2013-11-04 11:35:00
6:55 AM,26.6,15.8,64,30.60,10.0,WNW,3.5,-,N/A,,Clear,290,2013-11-04 11:55:00
7:15 AM,28.4,17.6,64,30.60,10.0,WNW,3.5,-,N/A,,Clear,300,2013-11-04 12:15:00
7:35 AM,30.2,17.6,60,30.61,10.0,NNW,5.8,-,N/A,,Clear,340,2013-11-04 12:35:00
7:55 AM,32.0,15.8,51,30.62,10.0,NNW,9.2,-,N/A,,Clear,330,2013-11-04 12:55:00
8:15 AM,33.8,15.8,48,30.62,10.0,North,4.6,-,N/A,,Clear,360,2013-11-04 13:15:00
8:35 AM,33.8,15.8,48,30.62,10.0,North,5.8,-,N/A,,Clear,360,2013-11-04 13:35:00
8:55 AM,35.6,15.8,44,30.62,9.0,North,6.9,-,N/A,,Clear,360,2013-11-04 13:55:00
9:15 AM,35.6,15.8,44,30.63,10.0,North,9.2,-,N/A,,Clear,360,2013-11-04 14:15:00
9:35 AM,35.6,15.8,44,30.63,10.0,North,12.7,18.4,N/A,,Clear,10,2013-11-04 14:35:00
9:55 AM,35.6,15.8,44,30.62,10.0,NNW,9.2,16.1,N/A,,Clear,340,2013-11-04 14:55:00
10:15 AM,35.6,15.8,44,30.62,10.0,NNE,8.1,-,N/A,,Clear,30,2013-11-04 15:15:00
10:35 AM,35.6,15.8,44,30.62,10.0,North,6.9,-,N/A,,Clear,360,2013-11-04 15:35:00
10:55 AM,37.4,15.8,41,30.61,10.0,NNE,4.6,-,N/A,,Clear,20,2013-11-04 15:55:00
11:15 AM,37.4,15.8,41,30.61,10.0,North,8.1,17.3,N/A,,Clear,360,2013-11-04 16:15:00
11:35 AM,37.4,15.8,41,30.61,10.0,North,5.8,16.1,N/A,,Clear,10,2013-11-04 16:35:00
11:55 AM,37.4,15.8,41,30.61,10.0,NNE,8.1,-,N/A,,Clear,20,2013-11-04 16:55:00
12:15 PM,39.2,15.8,39,30.61,10.0,NNE,8.1,-,N/A,,Clear,30,2013-11-04 17:15:00
12:35 PM,37.4,15.8,41,30.61,10.0,NNE,4.6,-,N/A,,Clear,30,2013-11-04 17:35:00
12:55 PM,39.2,15.8,39,30.62,10.0,NNW,6.9,-,N/A,,Clear,340,2013-11-04 17:55:00
1:15 PM,39.2,15.8,39,30.62,10.0,North,6.9,-,N/A,,Clear,10,2013-11-04 18:15:00
1:35 PM,39.2,15.8,39,30.62,10.0,North,6.9,-,N/A,,Clear,360,2013-11-04 18:35:00
1:55 PM,39.2,15.8,39,30.61,10.0,North,6.9,-,N/A,,Clear,360,2013-11-04 18:55:00
2:15 PM,39.2,15.8,39,30.62,10.0,North,6.9,-,N/A,,Clear,360,2013-11-04 19:15:00
2:35 PM,39.2,15.8,39,30.62,10.0,NNE,8.1,-,N/A,,Clear,20,2013-11-04 19:35:00
2:55 PM,39.2,15.8,39,30.63,10.0,NNW,5.8,-,N/A,,Clear,340,2013-11-04 19:55:00
3:15 PM,39.2,15.8,39,30.63,10.0,North,6.9,-,N/A,,Clear,10,2013-11-04 20:15:00
3:35 PM,39.2,14.0,36,30.64,10.0,NNE,6.9,-,N/A,,Clear,30,2013-11-04 20:35:00
3:55 PM,39.2,14.0,36,30.64,10.0,Calm,Calm,-,N/A,,Clear,0,2013-11-04 20:55:00
4:15 PM,39.2,14.0,36,30.65,10.0,NNE,4.6,-,N/A,,Clear,20,2013-11-04 21:15:00
4:35 PM,37.4,15.8,41,30.66,10.0,North,3.5,-,N/A,,Clear,10,2013-11-04 21:35:00
4:55 PM,37.4,15.8,41,30.67,10.0,North,5.8,-,N/A,,Clear,10,2013-11-04 21:55:00
5:15 PM,37.4,15.8,41,30.67,10.0,North,5.8,-,N/A,,Clear,360,2013-11-04 22:15:00
5:35 PM,37.4,15.8,41,30.67,10.0,North,4.6,-,N/A,,Clear,360,2013-11-04 22:35:00
5:55 PM,35.6,17.6,48,30.67,10.0,NNW,3.5,-,N/A,,Clear,330,2013-11-04 22:55:00
6:15 PM,35.6,15.8,44,30.68,10.0,Calm,Calm,-,N/A,,Clear,0,2013-11-04 23:15:00
6:35 PM,33.8,15.8,48,30.68,10.0,Calm,Calm,-,N/A,,Clear,0,2013-11-04 23:35:00
6:55 PM,30.2,17.6,60,30.68,10.0,WNW,3.5,-,N/A,,Clear,300,2013-11-04 23:55:00
7:15 PM,28.4,17.6,64,30.68,10.0,Calm,Calm,-,N/A,,Clear,0,2013-11-05 00:15:00
7:35 PM,33.8,19.4,56,30.68,10.0,Calm,Calm,-,N/A,,Clear,0,2013-11-05 00:35:00
7:55 PM,30.2,19.4,64,30.69,10.0,NNW,3.5,-,N/A,,Clear,340,2013-11-05 00:55:00
8:15 PM,30.2,17.6,60,30.70,10.0,NW,3.5,-,N/A,,Clear,320,2013-11-05 01:15:00
8:35 PM,26.6,15.8,64,30.70,10.0,Calm,Calm,-,N/A,,Clear,0,2013-11-05 01:35:00
8:55 PM,28.4,15.8,59,30.70,10.0,WNW,4.6,-,N/A,,Clear,290,2013-11-05 01:55:00
9:15 PM,26.6,19.4,74,30.71,10.0,Calm,Calm,-,N/A,,Clear,0,2013-11-05 02:15:00
9:35 PM,24.8,19.4,80,30.71,10.0,West,4.6,-,N/A,,Clear,260,2013-11-05 02:35:00
9:55 PM,26.6,17.6,69,30.70,10.0,Calm,Calm,-,N/A,,Clear,0,2013-11-05 02:55:00
10:15 PM,26.6,19.4,74,30.70,10.0,Calm,Calm,-,N/A,,Clear,0,2013-11-05 03:15:00
10:35 PM,24.8,19.4,80,30.70,10.0,NE,3.5,-,N/A,,Clear,50,2013-11-05 03:35:00
10:55 PM,24.8,21.2,86,30.70,10.0,Calm,Calm,-,N/A,,Clear,0,2013-11-05 03:55:00
11:15 PM,24.8,21.2,86,30.70,10.0,Calm,Calm,-,N/A,,Clear,0,2013-11-05 04:15:00
11:35 PM,24.8,21.2,86,30.71,10.0,WNW,3.5,-,N/A,,Clear,290,2013-11-05 04:35:00
11:55 PM,24.8,21.2,86,30.72,10.0,West,3.5,-,N/A,,Clear,270,2013-11-05 04:55:00